Home > Time Zones > World Clock > Weather > Iran > Yazd > Past weeks

Flag for Iran Weather past 2 weeks in Yazd, Iran

Now
97 °F

Passing clouds.


Feels Like: 92 °F
Forecast: 69 / 98 °F
Wind: 9 mph from Northwest

Location: Yazd Airport

Current Time: Aug 29, 2015 at 7:23:27 PM

Latest Report: Aug 29, 2015 at 7:00 PM


Visibility: N/A

Pressure: 29.98 "Hg (26.20 "Hg at 1218m altitude)

Humidity: 9%

Dew point: 30 °F

Location of YazdLocation

Historic Weather in Yazd — Graph

°F

Yazd temperature yesterday

Maximum temperature yesterday: 100 °F (at 4:30 PM)
Minimum temperature yesterday: 77 °F (at 6:30 AM)
Average temperature yesterday: 89 °F

Past Weeks' High & Low Weather Summary

 TemperatureHumidityPressure
High106 °F (Aug 23, 3:30 PM)31% (Aug 26, 6:20 AM)30.12 "Hg (Aug 26, 6:20 AM)
Low68 °F (Aug 15, 6:30 AM)3% (Aug 18, 5:00 PM)29.71 "Hg (Aug 24, 5:00 PM)
Average90 °F10%29.94 "Hg
* Reported Aug 14 5:30 PM — Aug 29 6:00 PM, Yazd, Weather by CustomWeather, © 2015

Note: Actual official high and low records may vary slightly from our data, if they occured in-between our weather recording intervals... More about our weather records

Advertising

Yazd weather history for previous 24 hours

 ConditionsComfort  
Time TempWeatherWind HumidityBarometerVisibility
6:00 PM
Sat, Aug 29
100 °FPassing clouds.2 mph8%29.98 "HgN/A
5:30 PM99 °FPassing clouds.5 mph8%29.98 "HgN/A
4:30 PM100 °FPassing clouds.No wind8%30.01 "HgN/A
3:30 PM99 °FPassing clouds.5 mph8%30.01 "HgN/A
2:30 PM99 °FPassing clouds.2 mph10%30.04 "HgN/A
1:30 PM95 °FPassing clouds.5 mph12%30.07 "HgN/A
1:00 PM93 °FSunny.7 mph14%30.07 "Hg10 mi
12:30 PM93 °FSunny.5 mph14%30.07 "Hg10 mi
12:00 PM91 °FSunny.5 mph16%30.09 "Hg10 mi
11:30 AM90 °FSunny.5 mph17%30.09 "Hg10 mi
10:30 AM86 °FSunny.5 mph19%30.12 "Hg10 mi
10:00 AM84 °FSunny.9 mph22%30.12 "Hg10 mi
9:30 AM82 °FSunny.9 mph21%30.09 "Hg10 mi
9:00 AM82 °FSunny.9 mph21%30.09 "Hg10 mi
8:30 AM81 °FSunny.9 mph23%30.09 "Hg10 mi
8:00 AM79 °FSunny.7 mph24%30.09 "Hg10 mi
7:30 AM77 °FClear.5 mph26%30.09 "Hg10 mi
7:00 AM77 °FClear.5 mph24%30.07 "Hg10 mi
6:30 AM75 °FClear.5 mph25%30.07 "Hg10 mi
6:00 AM75 °FClear.7 mph24%30.07 "Hg10 mi
5:30 AM75 °FClear.2 mph24%30.04 "Hg10 mi
4:30 AM79 °FClear.5 mph21%30.04 "Hg10 mi
3:30 AM81 °FClear.7 mph20%30.04 "Hg10 mi
2:30 AM82 °FClear.9 mph17%30.04 "Hg10 mi
1:30 AM82 °FClear.7 mph17%30.04 "Hg10 mi
12:30 AM84 °FClear.7 mph15%30.04 "Hg10 mi
12:00 AM84 °FClear.9 mph15%30.04 "Hg10 mi
11:30 PM
Fri, Aug 28
86 °FClear.7 mph15%30.04 "Hg10 mi
11:00 PM86 °FClear.7 mph14%30.04 "Hg10 mi
10:30 PM86 °FClear.7 mph14%30.04 "Hg10 mi
10:00 PM88 °FClear.5 mph13%30.04 "Hg10 mi
9:30 PM90 °FClear.No wind15%30.01 "Hg10 mi
9:00 PM91 °FClear.5 mph13%30.01 "Hg10 mi
8:30 PM91 °FSunny.7 mph12%29.98 "Hg10 mi
8:00 PM93 °FSunny.7 mph11%29.98 "Hg10 mi
7:30 PM95 °FSunny.9 mph10%29.98 "Hg10 mi
7:00 PM97 °FSunny.9 mph9%29.98 "Hg10 mi
Weather by CustomWeather, © 2015

See weather overviewHow to use our weather pages